Time,TemperatureF,DewpointF,PressureIn,WindDirection,WindDirectionDegrees,WindSpeedMPH,WindSpeedGustMPH,Humidity,HourlyPrecipIn,Conditions,Clouds,dailyrainin,SoftwareType,DateUTC
2013-05-11 00:02:00,57.0,44.0,30.20,North,11,9.0,13.0,62,-99.99,,,-99.99,,2013-05-11 06:02:00,
2013-05-11 00:12:00,57.0,44.0,30.20,NNE,18,8.0,13.0,61,-99.99,,,-99.99,,2013-05-11 06:12:00,
2013-05-11 00:21:00,57.0,44.0,30.21,NNE,19,9.0,14.0,60,-99.99,,,-99.99,,2013-05-11 06:21:00,
2013-05-11 00:32:00,57.0,43.0,30.21,NNE,21,10.0,15.0,59,-99.99,,,-99.99,,2013-05-11 06:32:00,
2013-05-11 00:42:00,58.0,43.0,30.21,NNE,30,10.0,14.0,59,-99.99,,,-99.99,,2013-05-11 06:42:00,
2013-05-11 00:52:00,57.0,43.0,30.21,NNE,28,12.0,16.0,60,-99.99,,,-99.99,,2013-05-11 06:52:00,
2013-05-11 01:02:00,56.0,44.0,30.21,NNE,22,10.0,15.0,62,-99.99,,,-99.99,,2013-05-11 07:02:00,
2013-05-11 01:11:00,56.0,43.0,30.21,NNE,14,9.0,14.0,62,-99.99,,,-99.99,,2013-05-11 07:11:00,
2013-05-11 01:21:00,56.0,43.0,30.21,North,7,10.0,14.0,61,-99.99,,,-99.99,,2013-05-11 07:21:00,
2013-05-11 01:32:00,56.0,43.0,30.22,NNE,14,10.0,14.0,61,-99.99,,,-99.99,,2013-05-11 07:32:00,
2013-05-11 01:42:00,56.0,43.0,30.22,NNE,13,12.0,17.0,61,-99.99,,,-99.99,,2013-05-11 07:42:00,
2013-05-11 01:52:00,56.0,44.0,30.22,North,9,8.0,13.0,63,-99.99,,,-99.99,,2013-05-11 07:52:00,
2013-05-11 02:01:00,55.0,44.0,30.22,North,11,7.0,9.0,65,-99.99,,,-99.99,,2013-05-11 08:01:00,
2013-05-11 02:12:00,55.0,43.0,30.22,North,10,7.0,9.0,64,-99.99,,,-99.99,,2013-05-11 08:12:00,
2013-05-11 02:21:00,55.0,43.0,30.22,North,4,7.0,10.0,64,-99.99,,,-99.99,,2013-05-11 08:21:00,
2013-05-11 02:32:00,54.0,43.0,30.22,North,352,6.0,7.0,66,-99.99,,,-99.99,,2013-05-11 08:32:00,
2013-05-11 02:42:00,53.0,43.0,30.22,NNW,328,6.0,7.0,69,-99.99,,,-99.99,,2013-05-11 08:42:00,
2013-05-11 02:52:00,53.0,43.0,30.22,NNW,337,6.0,7.0,70,-99.99,,,-99.99,,2013-05-11 08:52:00,
2013-05-11 03:01:00,52.0,43.0,30.22,NNW,345,8.0,10.0,71,-99.99,,,-99.99,,2013-05-11 09:01:00,
2013-05-11 03:11:00,52.0,43.0,30.21,North,355,8.0,10.0,72,-99.99,,,-99.99,,2013-05-11 09:11:00,
2013-05-11 03:21:00,52.0,43.0,30.22,NNW,337,7.0,9.0,71,-99.99,,,-99.99,,2013-05-11 09:21:00,
2013-05-11 03:32:00,51.0,42.0,30.22,NNW,341,7.0,9.0,72,-99.99,,,-99.99,,2013-05-11 09:32:00,
2013-05-11 03:42:00,51.0,42.0,30.22,North,354,7.0,9.0,72,-99.99,,,-99.99,,2013-05-11 09:42:00,
2013-05-11 03:52:00,51.0,42.0,30.21,North,350,8.0,10.0,72,-99.99,,,-99.99,,2013-05-11 09:52:00,
2013-05-11 04:03:00,52.0,42.0,30.22,North,359,9.0,12.0,70,-99.99,,,-99.99,,2013-05-11 10:03:00,
2013-05-11 04:12:00,52.0,42.0,30.22,North,1,12.0,14.0,69,-99.99,,,-99.99,,2013-05-11 10:12:00,
2013-05-11 04:22:00,52.0,42.0,30.22,North,359,10.0,13.0,69,-99.99,,,-99.99,,2013-05-11 10:22:00,
2013-05-11 04:33:00,52.0,42.0,30.22,North,0,9.0,12.0,68,-99.99,,,-99.99,,2013-05-11 10:33:00,
2013-05-11 04:42:00,52.0,42.0,30.22,North,354,7.0,9.0,69,-99.99,,,-99.99,,2013-05-11 10:42:00,
2013-05-11 04:52:00,51.0,42.0,30.22,North,354,7.0,8.0,71,-99.99,,,-99.99,,2013-05-11 10:52:00,
2013-05-11 05:02:00,51.0,42.0,30.22,North,357,6.0,7.0,71,-99.99,,,-99.99,,2013-05-11 11:02:00,
2013-05-11 05:12:00,51.0,42.0,30.22,North,10,8.0,10.0,70,-99.99,,,-99.99,,2013-05-11 11:12:00,
2013-05-11 05:21:00,53.0,42.0,30.23,North,11,8.0,13.0,66,-99.99,,,-99.99,,2013-05-11 11:21:00,
2013-05-11 05:32:00,52.0,42.0,30.23,NNE,14,8.0,13.0,68,-99.99,,,-99.99,,2013-05-11 11:32:00,
2013-05-11 05:42:00,52.0,42.0,30.23,North,10,8.0,13.0,68,-99.99,,,-99.99,,2013-05-11 11:42:00,
2013-05-11 05:51:00,52.0,42.0,30.23,NNE,14,9.0,12.0,68,-99.99,,,-99.99,,2013-05-11 11:51:00,
2013-05-11 06:01:00,52.0,42.0,30.23,NNE,16,9.0,12.0,67,-99.99,,,-99.99,,2013-05-11 12:01:00,
2013-05-11 06:11:00,52.0,42.0,30.24,NNE,15,9.0,14.0,67,-99.99,,,-99.99,,2013-05-11 12:11:00,
2013-05-11 06:22:00,52.0,42.0,30.24,NNE,14,10.0,14.0,68,-99.99,,,-99.99,,2013-05-11 12:22:00,
2013-05-11 06:32:00,51.0,42.0,30.24,NNE,16,9.0,13.0,69,-99.99,,,-99.99,,2013-05-11 12:32:00,
2013-05-11 06:42:00,51.0,42.0,30.25,NNE,13,9.0,10.0,70,-99.99,,,-99.99,,2013-05-11 12:42:00,
2013-05-11 06:51:00,51.0,42.0,30.25,North,4,7.0,10.0,70,-99.99,,,-99.99,,2013-05-11 12:51:00,
2013-05-11 07:01:00,52.0,42.0,30.26,NNE,18,9.0,13.0,69,-99.99,,,-99.99,,2013-05-11 13:01:00,
2013-05-11 07:11:00,52.0,42.0,30.26,NNE,18,7.0,9.0,69,-99.99,,,-99.99,,2013-05-11 13:11:00,
2013-05-11 07:21:00,52.0,42.0,30.26,North,8,8.0,13.0,69,-99.99,,,-99.99,,2013-05-11 13:21:00,
2013-05-11 07:32:00,52.0,42.0,30.26,North,358,8.0,10.0,68,-99.99,,,-99.99,,2013-05-11 13:32:00,
2013-05-11 07:42:00,52.0,42.0,30.26,North,3,9.0,10.0,69,-99.99,,,-99.99,,2013-05-11 13:42:00,
2013-05-11 07:52:00,53.0,42.0,30.26,North,2,8.0,10.0,67,-99.99,,,-99.99,,2013-05-11 13:52:00,
2013-05-11 08:02:00,54.0,42.0,30.27,NNE,16,8.0,12.0,64,-99.99,,,-99.99,,2013-05-11 14:02:00,
2013-05-11 08:11:00,55.0,42.0,30.27,NNE,15,9.0,13.0,61,-99.99,,,-99.99,,2013-05-11 14:11:00,
2013-05-11 08:21:00,56.0,42.0,30.27,NNE,24,9.0,12.0,58,-99.99,,,-99.99,,2013-05-11 14:21:00,
2013-05-11 08:32:00,58.0,42.0,30.28,NNE,28,8.0,12.0,55,-99.99,,,-99.99,,2013-05-11 14:32:00,
2013-05-11 08:42:00,59.0,42.0,30.28,NNE,32,9.0,12.0,54,-99.99,,,-99.99,,2013-05-11 14:42:00,
2013-05-11 08:51:00,59.0,42.0,30.28,NNE,29,8.0,12.0,53,-99.99,,,-99.99,,2013-05-11 14:51:00,
2013-05-11 09:01:00,59.0,42.0,30.29,ENE,65,6.0,7.0,53,-99.99,,,-99.99,,2013-05-11 15:01:00,
2013-05-11 09:11:00,60.0,43.0,30.29,East,92,8.0,10.0,53,-99.99,,,-99.99,,2013-05-11 15:11:00,
2013-05-11 09:21:00,60.0,43.0,30.29,ESE,119,3.0,5.0,53,-99.99,,,-99.99,,2013-05-11 15:21:00,
2013-05-11 09:32:00,60.0,43.0,30.29,SE,129,5.0,7.0,53,-99.99,,,-99.99,,2013-05-11 15:32:00,
2013-05-11 09:43:00,62.0,43.0,30.29,ESE,117,12.0,20.0,50,-99.99,,,-99.99,,2013-05-11 15:43:00,
2013-05-11 09:53:00,63.0,43.0,30.29,SE,132,13.0,16.0,48,-99.99,,,-99.99,,2013-05-11 15:53:00,
2013-05-11 10:02:00,63.0,43.0,30.29,SE,127,9.0,15.0,48,-99.99,,,-99.99,,2013-05-11 16:02:00,
2013-05-11 10:12:00,63.0,43.0,30.29,East,86,8.0,13.0,48,-99.99,,,-99.99,,2013-05-11 16:12:00,
2013-05-11 10:23:00,63.0,43.0,30.29,East,96,7.0,13.0,48,-99.99,,,-99.99,,2013-05-11 16:23:00,
2013-05-11 10:33:00,64.0,43.0,30.29,East,92,13.0,17.0,47,-99.99,,,-99.99,,2013-05-11 16:33:00,
2013-05-11 10:42:00,65.0,43.0,30.30,East,80,9.0,15.0,45,-99.99,,,-99.99,,2013-05-11 16:42:00,
2013-05-11 10:52:00,66.0,43.0,30.30,East,91,10.0,15.0,44,-99.99,,,-99.99,,2013-05-11 16:52:00,
2013-05-11 11:02:00,66.0,43.0,30.30,SE,129,13.0,17.0,43,-99.99,,,-99.99,,2013-05-11 17:02:00,
2013-05-11 11:12:00,66.0,43.0,30.30,ESE,110,10.0,21.0,44,-99.99,,,-99.99,,2013-05-11 17:12:00,
2013-05-11 11:22:00,66.0,43.0,30.30,ESE,107,12.0,16.0,44,-99.99,,,-99.99,,2013-05-11 17:22:00,
2013-05-11 11:32:00,66.0,43.0,30.30,ESE,107,12.0,16.0,44,-99.99,,,-99.99,,2013-05-11 17:32:00,
2013-05-11 11:42:00,66.0,43.0,30.30,ESE,123,15.0,21.0,43,-99.99,,,-99.99,,2013-05-11 17:42:00,
2013-05-11 11:52:00,68.0,43.0,30.30,East,92,8.0,14.0,41,-99.99,,,-99.99,,2013-05-11 17:52:00,
2013-05-11 12:01:00,69.0,44.0,30.30,ESE,117,15.0,20.0,41,-99.99,,,-99.99,,2013-05-11 18:01:00,
2013-05-11 12:11:00,67.0,44.0,30.30,East,96,10.0,15.0,44,-99.99,,,-99.99,,2013-05-11 18:11:00,
2013-05-11 12:21:00,67.0,44.0,30.30,East,93,8.0,13.0,43,-99.99,,,-99.99,,2013-05-11 18:21:00,
2013-05-11 12:32:00,68.0,44.0,30.29,ESE,119,9.0,13.0,42,-99.99,,,-99.99,,2013-05-11 18:32:00,
2013-05-11 12:42:00,67.0,44.0,30.29,SE,127,8.0,12.0,43,-99.99,,,-99.99,,2013-05-11 18:42:00,
2013-05-11 12:51:00,69.0,43.0,30.28,East,86,8.0,13.0,40,-99.99,,,-99.99,,2013-05-11 18:51:00,
2013-05-11 13:02:00,69.0,42.0,30.28,East,101,6.0,9.0,38,-99.99,,,-99.99,,2013-05-11 19:02:00,
2013-05-11 13:11:00,70.0,42.0,30.28,SE,137,10.0,15.0,36,-99.99,,,-99.99,,2013-05-11 19:11:00,
2013-05-11 13:21:00,70.0,41.0,30.28,ESE,116,12.0,14.0,35,-99.99,,,-99.99,,2013-05-11 19:21:00,
2013-05-11 13:32:00,71.0,41.0,30.27,ENE,57,6.0,14.0,34,-99.99,,,-99.99,,2013-05-11 19:32:00,
2013-05-11 13:42:00,71.0,40.0,30.27,East,87,12.0,28.0,33,-99.99,,,-99.99,,2013-05-11 19:42:00,
2013-05-11 13:52:00,71.0,39.0,30.27,ENE,78,17.0,25.0,31,-99.99,,,-99.99,,2013-05-11 19:52:00,
2013-05-11 14:02:00,68.0,35.0,30.27,East,85,3.0,5.0,30,-99.99,,,-99.99,,2013-05-11 20:02:00,
2013-05-11 14:12:00,67.0,40.0,30.26,SE,125,6.0,8.0,37,-99.99,,,-99.99,,2013-05-11 20:12:00,
2013-05-11 14:22:00,68.0,40.0,30.26,ESE,115,7.0,8.0,37,-99.99,,,-99.99,,2013-05-11 20:22:00,
2013-05-11 14:32:00,70.0,40.0,30.25,East,101,6.0,9.0,33,-99.99,,,-99.99,,2013-05-11 20:32:00,
2013-05-11 14:42:00,71.0,40.0,30.25,ENE,59,8.0,16.0,32,-99.99,,,-99.99,,2013-05-11 20:42:00,
2013-05-11 14:52:00,71.0,40.0,30.24,East,87,6.0,9.0,33,-99.99,,,-99.99,,2013-05-11 20:52:00,
2013-05-11 15:02:00,72.0,39.0,30.24,NE,34,12.0,16.0,30,-99.99,,,-99.99,,2013-05-11 21:02:00,
2013-05-11 15:11:00,74.0,39.0,30.23,East,81,6.0,9.0,28,-99.99,,,-99.99,,2013-05-11 21:11:00,
2013-05-11 15:21:00,75.0,39.0,30.23,ESE,114,12.0,17.0,27,-99.99,,,-99.99,,2013-05-11 21:21:00,
2013-05-11 15:33:00,71.0,39.0,30.23,ENE,67,8.0,13.0,31,-99.99,,,-99.99,,2013-05-11 21:33:00,
2013-05-11 15:43:00,72.0,38.0,30.22,NNE,32,9.0,17.0,29,-99.99,,,-99.99,,2013-05-11 21:43:00,
2013-05-11 15:52:00,74.0,37.0,30.21,NNE,22,10.0,16.0,26,-99.99,,,-99.99,,2013-05-11 21:52:00,
2013-05-11 16:02:00,74.0,37.0,30.21,ENE,75,7.0,13.0,26,-99.99,,,-99.99,,2013-05-11 22:02:00,
2013-05-11 16:13:00,73.0,37.0,30.21,ENE,71,10.0,13.0,27,-99.99,,,-99.99,,2013-05-11 22:13:00,
2013-05-11 16:23:00,74.0,37.0,30.20,ESE,103,7.0,9.0,26,-99.99,,,-99.99,,2013-05-11 22:23:00,
2013-05-11 16:33:00,74.0,36.0,30.20,SE,127,10.0,15.0,25,-99.99,,,-99.99,,2013-05-11 22:33:00,
2013-05-11 16:42:00,74.0,35.0,30.20,ENE,76,9.0,13.0,24,-99.99,,,-99.99,,2013-05-11 22:42:00,
2013-05-11 16:52:00,74.0,34.0,30.20,East,86,10.0,14.0,23,-99.99,,,-99.99,,2013-05-11 22:52:00,
2013-05-11 17:02:00,74.0,33.0,30.19,ESE,104,5.0,7.0,22,-99.99,,,-99.99,,2013-05-11 23:02:00,
2013-05-11 17:12:00,73.0,37.0,30.20,SE,132,8.0,10.0,27,-99.99,,,-99.99,,2013-05-11 23:12:00,
2013-05-11 17:22:00,73.0,35.0,30.20,ESE,106,6.0,9.0,25,-99.99,,,-99.99,,2013-05-11 23:22:00,
2013-05-11 17:32:00,74.0,33.0,30.19,East,93,7.0,10.0,22,-99.99,,,-99.99,,2013-05-11 23:32:00,
2013-05-11 17:42:00,73.0,35.0,30.20,SE,125,14.0,16.0,25,-99.99,,,-99.99,,2013-05-11 23:42:00,
2013-05-11 17:52:00,73.0,35.0,30.20,SE,133,12.0,15.0,25,-99.99,,,-99.99,,2013-05-11 23:52:00,
2013-05-11 18:01:00,74.0,35.0,30.19,SE,128,12.0,15.0,24,-99.99,,,-99.99,,2013-05-12 00:01:00,
2013-05-11 18:11:00,73.0,35.0,30.19,South,170,7.0,9.0,25,-99.99,,,-99.99,,2013-05-12 00:11:00,
2013-05-11 18:21:00,73.0,33.0,30.19,ESE,104,7.0,9.0,23,-99.99,,,-99.99,,2013-05-12 00:21:00,
2013-05-11 18:32:00,73.0,34.0,30.19,East,89,8.0,15.0,24,-99.99,,,-99.99,,2013-05-12 00:32:00,
2013-05-11 18:42:00,73.0,33.0,30.19,ENE,78,8.0,10.0,23,-99.99,,,-99.99,,2013-05-12 00:42:00,
2013-05-11 18:52:00,73.0,32.0,30.19,ENE,78,8.0,10.0,22,-99.99,,,-99.99,,2013-05-12 00:52:00,
2013-05-11 19:01:00,74.0,30.0,30.19,East,95,9.0,12.0,20,-99.99,,,-99.99,,2013-05-12 01:01:00,
2013-05-11 19:11:00,73.0,31.0,30.19,ESE,112,9.0,13.0,21,-99.99,,,-99.99,,2013-05-12 01:11:00,
2013-05-11 19:21:00,73.0,32.0,30.19,East,83,7.0,10.0,22,-99.99,,,-99.99,,2013-05-12 01:21:00,
2013-05-11 19:32:00,73.0,28.0,30.19,East,83,8.0,12.0,19,-99.99,,,-99.99,,2013-05-12 01:32:00,
2013-05-11 19:42:00,74.0,29.0,30.20,East,94,15.0,21.0,19,-99.99,,,-99.99,,2013-05-12 01:42:00,
2013-05-11 19:52:00,73.0,28.0,30.20,ESE,104,13.0,16.0,19,-99.99,,,-99.99,,2013-05-12 01:52:00,
2013-05-11 20:01:00,72.0,28.0,30.21,East,87,12.0,18.0,19,-99.99,,,-99.99,,2013-05-12 02:01:00,
2013-05-11 20:11:00,72.0,28.0,30.21,East,97,13.0,17.0,19,-99.99,,,-99.99,,2013-05-12 02:11:00,
2013-05-11 20:22:00,71.0,32.0,30.22,NE,39,14.0,23.0,23,-99.99,,,-99.99,,2013-05-12 02:22:00,
2013-05-11 20:32:00,69.0,40.0,30.24,SE,134,13.0,17.0,35,-99.99,,,-99.99,,2013-05-12 02:32:00,
2013-05-11 20:42:00,67.0,40.0,30.24,SE,142,15.0,22.0,38,-99.99,,,-99.99,,2013-05-12 02:42:00,
2013-05-11 20:52:00,66.0,40.0,30.24,SE,137,10.0,17.0,39,-99.99,,,-99.99,,2013-05-12 02:52:00,
2013-05-11 21:01:00,66.0,41.0,30.25,SE,131,17.0,24.0,40,-99.99,,,-99.99,,2013-05-12 03:01:00,
2013-05-11 21:11:00,65.0,41.0,30.25,SE,139,15.0,20.0,41,-99.99,,,-99.99,,2013-05-12 03:11:00,
2013-05-11 21:22:00,65.0,41.0,30.25,SSE,149,10.0,14.0,42,-99.99,,,-99.99,,2013-05-12 03:22:00,
2013-05-11 21:33:00,65.0,41.0,30.25,SE,139,15.0,18.0,41,-99.99,,,-99.99,,2013-05-12 03:33:00,
2013-05-11 21:43:00,64.0,41.0,30.26,SE,133,8.0,10.0,43,-99.99,,,-99.99,,2013-05-12 03:43:00,
2013-05-11 21:53:00,64.0,41.0,30.26,SE,134,8.0,10.0,43,-99.99,,,-99.99,,2013-05-12 03:53:00,
2013-05-11 22:02:00,-999.0,-99.9,30.27,SE,126,7.0,9.0,45,-99.99,,,-99.99,,2013-05-12 04:02:00,
2013-05-11 22:12:00,63.0,41.0,30.27,ESE,123,7.0,9.0,45,-99.99,,,-99.99,,2013-05-12 04:12:00,
2013-05-11 22:22:00,62.0,41.0,30.28,ESE,119,7.0,9.0,46,-99.99,,,-99.99,,2013-05-12 04:22:00,
2013-05-11 22:33:00,62.0,41.0,30.28,ESE,108,5.0,7.0,46,-99.99,,,-99.99,,2013-05-12 04:33:00,
2013-05-11 22:43:00,62.0,42.0,30.28,ESE,110,5.0,6.0,47,-99.99,,,-99.99,,2013-05-12 04:43:00,
2013-05-11 22:52:00,62.0,41.0,30.29,SE,124,5.0,6.0,47,-99.99,,,-99.99,,2013-05-12 04:52:00,
2013-05-11 23:02:00,61.0,41.0,30.29,SE,128,8.0,10.0,48,-99.99,,,-99.99,,2013-05-12 05:02:00,
2013-05-11 23:12:00,62.0,41.0,30.29,SE,137,10.0,13.0,45,-99.99,,,-99.99,,2013-05-12 05:12:00,
2013-05-11 23:22:00,63.0,41.0,30.29,SE,141,7.0,8.0,44,-99.99,,,-99.99,,2013-05-12 05:22:00,
2013-05-11 23:32:00,62.0,41.0,30.30,SE,134,6.0,8.0,46,-99.99,,,-99.99,,2013-05-12 05:32:00,
2013-05-11 23:42:00,63.0,42.0,30.30,SE,142,7.0,9.0,46,-99.99,,,-99.99,,2013-05-12 05:42:00,
2013-05-11 23:51:00,63.0,42.0,30.30,SE,146,6.0,8.0,46,-99.99,,,-99.99,,2013-05-12 05:51:00,